Crestview, FL

9:09 AM CDT on October 21, 2017 (GMT -0500)
Sikes

Weather History for KCEW - January, 2014

Change the Weather History Date:

Tuesday, January 21, 2014

  Actual Average Record
Temperature  
Mean Temperature 48 °F -  
Max Temperature 61 °F 60 °F 80 °F (1982)
Min Temperature 33 °F 37 °F 21 °F (1977)
Degree Days  
Heating Degree Days 18    
Moisture  
Dew Point 36 °F    
Average Humidity 69    
Maximum Humidity 100    
Minimum Humidity 26    
Precipitation  
Precipitation 0.00 in - - ()
Sea Level Pressure  
Sea Level Pressure 29.97 in    
Wind  
Wind Speed 6 mph (NW)    
Max Wind Speed 23 mph    
Max Gust Speed 33 mph    
Visibility 7 miles    
Events Fog    
Averages and records for this station are not official NWS values.
T = Trace of Precipitation, MM = Missing Value Source: NWS Daily Summary

Daily Weather History Graph

Daily Weather History Graph

Search for Another Location

Airport or City:

Trip Planner

Search our weather history database for the weather conditions in past years. The results will help you decide how hot, cold, wet, or windy it might be!

Date:

Astronomy

Jan. 21, 2014 Rise Set
Actual Time 6:42 AM CST 5:12 PM CST
Civil Twilight 6:17 AM CST 5:38 PM CST
Nautical Twilight 5:47 AM CST 6:07 PM CST
Astronomical Twilight 5:18 AM CST 6:36 PM CST
Moon 10:19 PM CST 9:35 AM CST
Length of Visible Light 11h 21m
Length of Day
10h 29m
Waning Gibbous, 74% of the Moon is Illuminated
Jan 21
Waning Gibbous
Jan 23
Last Quarter
Jan 30
New
Feb 6
First Quarter
Feb 14
Full

Hourly Weather History & Observations

Time (CST) Temp. Windchill Dew Point Humidity Pressure Visibility Wind Dir Wind Speed Gust Speed Precip Events Conditions
12:53 AM 36.0 °F - 34.0 °F 93% 29.97 in 9.0 mi Calm Calm - N/A   Clear
1:53 AM 37.0 °F - 35.1 °F 93% 29.96 in 9.0 mi Calm Calm - N/A   Partly Cloudy
2:53 AM 37.9 °F - 36.0 °F 93% 29.95 in 9.0 mi Calm Calm - N/A   Partly Cloudy
3:53 AM 37.9 °F - 36.0 °F 93% 29.93 in 8.0 mi Calm Calm - N/A   Partly Cloudy
4:01 AM 37.9 °F - 36.0 °F 93% 29.92 in 8.0 mi Calm Calm - N/A   Mostly Cloudy
4:13 AM 37.9 °F - 36.0 °F 93% 29.92 in 5.0 mi Calm Calm - N/A   Mostly Cloudy
4:19 AM 37.9 °F - 36.0 °F 93% 29.91 in 1.5 mi Calm Calm - N/A   Overcast
4:23 AM 37.9 °F - 36.0 °F 93% 29.91 in 0.5 mi Calm Calm - N/A Fog Fog
4:33 AM 37.9 °F - 37.0 °F 97% 29.91 in 0.5 mi Calm Calm - N/A Fog Fog
4:53 AM 41.0 °F - 39.0 °F 93% 29.90 in 0.5 mi Calm Calm - N/A Fog Fog
5:51 AM 53.6 °F - 53.6 °F 100% 29.90 in 0.8 mi West 5.8 mph - N/A   Mist
5:53 AM 54.0 °F - 53.1 °F 97% 29.90 in 0.8 mi WSW 4.6 mph - N/A   Mist
6:10 AM 54.0 °F - 53.1 °F 97% 29.91 in 2.0 mi West 8.1 mph - N/A   Overcast
6:15 AM 55.0 °F - 54.0 °F 96% 29.91 in 4.0 mi West 9.2 mph - N/A   Overcast
6:53 AM 55.0 °F - 54.0 °F 96% 29.91 in 4.0 mi West 6.9 mph - N/A   Overcast
7:53 AM 55.9 °F - 54.0 °F 93% 29.92 in 5.0 mi WNW 12.7 mph - N/A   Overcast
8:14 AM 57.0 °F - 53.1 °F 87% 29.93 in 6.0 mi NW 16.1 mph - N/A   Overcast
8:34 AM 57.0 °F - 51.1 °F 81% 29.94 in 10.0 mi WNW 13.8 mph 20.7 mph N/A   Overcast
8:49 AM 57.2 °F - 50.0 °F 77% 29.94 in 10.0 mi NW 17.3 mph 23.0 mph N/A   Mostly Cloudy
8:53 AM 57.9 °F - 48.0 °F 70% 29.94 in 10.0 mi NW 20.7 mph 28.8 mph N/A   Mostly Cloudy
9:53 AM 59.0 °F - 41.0 °F 51% 29.96 in 10.0 mi NW 16.1 mph 25.3 mph N/A   Clear
10:53 AM 59.0 °F - 35.1 °F 41% 29.95 in 10.0 mi NW 13.8 mph 23.0 mph N/A   Clear
11:53 AM 60.1 °F - 33.1 °F 36% 29.93 in 10.0 mi NW 12.7 mph 25.3 mph N/A   Clear
12:53 PM 60.1 °F - 26.1 °F 27% 29.92 in 10.0 mi NW 19.6 mph 28.8 mph N/A   Clear
1:53 PM 61.0 °F - 26.1 °F 26% 29.91 in 10.0 mi NNW 17.3 mph 28.8 mph N/A   Clear
2:53 PM 59.0 °F - 24.1 °F 26% 29.93 in 10.0 mi NW 23.0 mph 33.4 mph N/A   Clear
3:53 PM 55.9 °F - 21.9 °F 27% 29.96 in 10.0 mi NW 20.7 mph 27.6 mph N/A   Clear
4:53 PM 51.1 °F - 21.0 °F 31% 30.00 in 10.0 mi NNW 13.8 mph 20.7 mph N/A   Clear
5:53 PM 46.9 °F - 19.0 °F 33% 30.04 in 10.0 mi North 12.7 mph 21.9 mph N/A   Clear
6:53 PM 44.1 °F 39.0 °F 21.0 °F 40% 30.08 in 10.0 mi North 9.2 mph 19.6 mph N/A   Clear
7:53 PM 39.9 °F 32.1 °F 21.0 °F 47% 30.11 in 10.0 mi NNW 13.8 mph - N/A   Clear
8:53 PM 37.9 °F 30.5 °F 21.0 °F 51% 30.12 in 10.0 mi NW 11.5 mph - N/A   Clear
9:53 PM 36.0 °F 26.0 °F 19.0 °F 50% 30.15 in 10.0 mi NNW 17.3 mph 23.0 mph N/A   Clear
10:53 PM 34.0 °F 26.6 °F 19.0 °F 54% 30.15 in 10.0 mi NNW 9.2 mph - N/A   Clear
11:53 PM 33.1 °F 24.9 °F 17.1 °F 52% 30.16 in 10.0 mi NNW 10.4 mph - N/A   Clear